CW1936 Weather Reports


time (UTC)temp
C
wind
direction
speed
KPH
gust
KPH
rain 1hr
cm
rain 24hr
cm
rain mn
cm
humidity
%
barometer
mb
20260508101558 22 115 0.0 4.8 0.00 0.00 0.00 64 1018.1
20260508100057 22 142 0.0 1.6 0.00 0.00 0.00 61 1018.0
20260508094558 22 132 0.0 4.8 0.00 0.00 0.00 62 1018.0
20260508093047 22 149 0.0 8.0 0.00 0.00 0.00 59 1018.0
20260508054601 18 108 0.0 0.0 0.00 0.00 0.00 70 1015.0
20260508053102 18 108 0.0 0.0 0.00 0.00 0.00 71 1015.0
20260508051610 18 146 0.0 0.0 0.00 0.00 0.00 68 1015.1
20260508050105 18 146 0.0 0.0 0.00 0.00 0.00 68 1015.3
20260508044556 18 355 0.0 0.0 0.00 0.00 0.00 70 1015.3
20260508043052 17 355 0.0 0.0 0.00 0.00 0.00 68 1015.4
20260508041558 17 355 0.0 0.0 0.00 0.00 0.00 64 1015.0
20260508040058 16 355 0.0 0.0 0.00 0.00 0.00 64 1014.9
20260508034550 16 355 0.0 0.0 0.00 0.00 0.00 67 1014.7
20260508033050 16 358 0.0 0.0 0.00 0.00 0.00 71 1014.7
20260508031547 16 358 0.0 0.0 0.00 0.00 0.00 68 1014.8
20260508030052 16 357 0.0 0.0 0.00 0.00 0.00 70 1015.1
20260508024544 16 357 0.0 0.0 0.00 0.00 0.00 71 1015.3
20260508023042 16 357 0.0 0.0 0.00 0.00 0.00 75 1015.5
20260508021541 16 357 0.0 0.0 0.00 0.00 0.00 74 1015.5
20260508020038 16 357 0.0 0.0 0.00 0.00 0.00 73 1015.7
20260508014537 16 357 0.0 0.0 0.00 0.00 0.00 69 1015.6
20260508013037 16 359 0.0 0.0 0.00 0.00 0.00 69 1015.6
20260508011536 16 358 0.0 0.0 0.00 0.00 0.00 68 1015.7
20260508010032 17 359 0.0 0.0 0.00 0.00 0.00 74 1015.7
20260508004533 17 358 0.0 0.0 0.00 0.00 0.00 73 1015.7
20260508003029 17 359 0.0 0.0 0.00 0.00 0.00 73 1015.8
20260508001530 17 359 0.0 0.0 0.00 0.00 0.00 73 1015.9
20260508000029 17 359 0.0 0.0 0.00 0.00 0.00 71 1016.1
20260507234540 17 359 0.0 0.0 0.00 0.00 0.00 68 1016.4
20260507233027 17 358 0.0 0.0 0.00 0.00 0.00 73 1016.7
20260507231520 17 359 0.0 0.0 0.00 0.00 0.00 73 1016.7
20260507230019 17 359 0.0 0.0 0.00 0.00 0.00 72 1016.8
20260507224518 17 359 0.0 0.0 0.00 0.00 0.00 71 1017.0
20260507223015 17 359 0.0 0.0 0.00 0.00 0.00 68 1017.2
20260507221520 17 358 0.0 0.0 0.00 0.00 0.00 66 1017.0
20260507220014 17 358 0.0 0.0 0.00 0.00 0.00 67 1017.0
20260507214514 17 3 0.0 0.0 0.00 0.00 0.00 70 1017.1
20260507213022 17 3 0.0 0.0 0.00 0.00 0.00 70 1017.2
20260507211511 17 14 0.0 0.0 0.00 0.00 0.00 68 1017.2
20260507210008 17 14 0.0 0.0 0.00 0.00 0.00 63 1017.0
20260507204507 17 14 0.0 0.0 0.00 0.00 0.00 63 1017.1
20260507203006 17 18 0.0 0.0 0.00 0.00 0.00 67 1017.0
20260507201507 17 18 0.0 0.0 0.00 0.00 0.00 65 1016.9
20260507200009 17 18 0.0 0.0 0.00 0.00 0.00 65 1017.1
20260507194520 17 18 0.0 0.0 0.00 0.00 0.00 65 1017.2
20260507193007 17 18 0.0 0.0 0.00 0.00 0.00 70 1017.2
20260507191505 17 18 0.0 0.0 0.00 0.00 0.00 72 1017.1
20260507190010 17 18 0.0 0.0 0.00 0.00 0.00 72 1017.0
20260507184504 17 18 0.0 0.0 0.00 0.00 0.00 73 1016.9
20260507183003 17 18 0.0 0.0 0.00 0.00 0.00 73 1016.7
20260507181502 17 18 0.0 0.0 0.00 0.00 0.00 72 1016.8
20260507180001 18 18 0.0 0.0 0.00 0.00 0.00 71 1016.7
20260507174501 18 18 0.0 0.0 0.00 0.00 0.00 70 1016.7
20260507173120 18 18 0.0 0.0 0.00 0.00 0.00 69 1016.6
20260507171601 20 18 0.0 0.0 0.00 0.00 0.00 67 1016.5
20260507170100 20 18 0.0 0.0 0.00 0.00 0.00 62 1016.6
20260507164631 21 18 0.0 0.0 0.00 0.00 0.00 60 1016.6
20260507163100 21 18 0.0 0.0 0.00 0.00 0.00 59 1016.6
20260507161604 21 25 0.0 3.2 0.00 0.00 0.00 58 1016.7
20260507160058 21 316 0.0 3.2 0.00 0.00 0.00 63 1016.5
20260507154600 21 27 0.0 0.0 0.00 0.00 0.00 68 1016.3
20260507153058 21 32 0.0 0.0 0.00 0.00 0.00 67 1016.2
20260507151556 21 32 0.0 1.6 0.00 0.00 0.00 68 1016.3
20260507150056 22 6 0.0 1.6 0.00 0.00 0.00 70 1016.3
20260507144600 22 41 0.0 3.2 0.00 0.00 0.00 67 1016.4
20260507143100 22 28 0.0 1.6 0.00 0.00 0.00 65 1016.6
20260507141556 22 37 1.6 8.0 0.00 0.00 0.00 61 1016.6
20260507140053 25 25 1.6 6.4 0.00 0.00 0.00 52 1016.5
20260507134552 26 43 0.0 3.2 0.00 0.00 0.00 36 1016.5
20260507133052 26 29 0.0 0.0 0.00 0.00 0.00 33 1016.6
20260507131555 26 105 0.0 0.0 0.00 0.00 0.00 32 1016.7
20260507130053 25 46 0.0 1.6 0.00 0.00 0.00 32 1016.7
20260507124600 25 89 0.0 1.6 0.00 0.00 0.00 34 1016.8
20260507123047 25 102 0.0 0.0 0.00 0.00 0.00 30 1017.0
20260507121546 26 101 0.0 0.0 0.00 0.00 0.00 35 1017.0
20260507120046 25 32 0.0 0.0 0.00 0.00 0.00 35 1017.2
20260507114603 25 127 0.0 1.6 0.00 0.00 0.00 33 1017.1
20260507113103 25 23 0.0 3.2 0.00 0.00 0.00 33 1017.3
20260507111546 24 121 1.6 6.4 0.00 0.00 0.00 34 1017.1
20260507110043 25 141 0.0 1.6 0.00 0.00 0.00 32 1017.1
20260507104542 25 58 0.0 0.0 0.00 0.00 0.00 35 1017.2
20260507103049 24 120 0.0 0.0 0.00 0.00 0.00 38 1017.2